Time,TemperatureF,DewpointF,PressureIn,WindDirection,WindDirectionDegrees,WindSpeedMPH,WindSpeedGustMPH,Humidity,HourlyPrecipIn,Conditions,Clouds,dailyrainin,SolarRadiationWatts/m^2,SoftwareType,DateUTC
2013-01-08 00:00:00,31.8,27.5,30.35,SW,234,0.0,0.0,84,0.00,,---,0.00,0.00,VWS V14.01,2013-01-08 05:00:00,
2013-01-08 00:05:00,32.0,27.4,30.35,SW,233,0.0,1.0,83,0.00,,---,0.00,0.00,VWS V14.01,2013-01-08 05:05:00,
2013-01-08 00:06:00,32.0,27.4,30.35,SW,234,0.0,1.0,83,0.00,,---,0.00,0.00,VWS V14.01,2013-01-08 05:06:00,
2013-01-08 00:10:00,32.0,27.4,30.35,SW,232,0.0,0.0,83,0.00,,---,0.00,0.00,VWS V14.01,2013-01-08 05:10:00,
2013-01-08 00:11:00,32.0,27.4,30.35,SW,232,0.0,0.0,83,0.00,,---,0.00,0.00,VWS V14.01,2013-01-08 05:11:00,
2013-01-08 00:15:00,31.8,27.2,30.35,SW,232,0.0,0.0,83,0.00,,---,0.00,0.00,VWS V14.01,2013-01-08 05:15:00,
2013-01-08 00:16:00,31.8,27.2,30.35,SW,232,0.0,0.0,83,0.00,,---,0.00,0.00,VWS V14.01,2013-01-08 05:16:00,
2013-01-08 00:20:00,31.8,27.2,30.35,SSW,203,1.0,2.0,83,0.00,,---,0.00,0.00,VWS V14.01,2013-01-08 05:20:00,
2013-01-08 00:21:00,31.8,27.2,30.35,SSW,203,2.0,2.0,83,0.00,,---,0.00,0.00,VWS V14.01,2013-01-08 05:21:00,
2013-01-08 00:25:00,32.1,27.5,30.35,South,178,1.0,2.0,83,0.00,,---,0.00,0.00,VWS V14.01,2013-01-08 05:25:00,
2013-01-08 00:26:00,32.1,27.5,30.35,South,189,0.0,2.0,83,0.00,,---,0.00,0.00,VWS V14.01,2013-01-08 05:26:00,
2013-01-08 00:30:00,32.2,27.3,30.35,South,169,2.0,4.0,82,0.00,,---,0.00,0.00,VWS V14.01,2013-01-08 05:30:00,
2013-01-08 00:31:00,32.2,27.3,30.35,South,169,1.0,4.0,82,0.00,,---,0.00,0.00,VWS V14.01,2013-01-08 05:31:00,
2013-01-08 00:35:00,32.5,27.6,30.35,South,187,2.0,5.0,82,0.00,,---,0.00,0.00,VWS V14.01,2013-01-08 05:35:00,
2013-01-08 00:36:00,32.5,27.6,30.35,South,187,3.0,5.0,82,0.00,,---,0.00,0.00,VWS V14.01,2013-01-08 05:36:00,
2013-01-08 00:40:00,32.8,27.9,30.35,South,188,3.0,4.0,82,0.00,,---,0.00,0.00,VWS V14.01,2013-01-08 05:40:00,
2013-01-08 00:41:00,32.7,27.8,30.35,South,188,2.0,4.0,82,0.00,,---,0.00,0.00,VWS V14.01,2013-01-08 05:41:00,
2013-01-08 00:45:00,32.7,27.5,30.35,SSW,196,0.0,5.0,81,0.00,,---,0.00,0.00,VWS V14.01,2013-01-08 05:45:00,
2013-01-08 00:46:00,32.7,27.5,30.35,SSW,196,0.0,5.0,81,0.00,,---,0.00,0.00,VWS V14.01,2013-01-08 05:46:00,
2013-01-08 00:50:00,32.5,27.9,30.35,SSW,195,0.0,4.0,83,0.00,,---,0.00,0.00,VWS V14.01,2013-01-08 05:50:00,
2013-01-08 00:51:00,32.5,27.9,30.35,SSW,195,0.0,4.0,83,0.00,,---,0.00,0.00,VWS V14.01,2013-01-08 05:51:00,
2013-01-08 00:55:00,32.4,27.8,30.35,SSW,194,4.0,6.0,83,0.00,,---,0.00,0.00,VWS V14.01,2013-01-08 05:55:00,
2013-01-08 00:56:00,32.4,27.8,30.35,SSW,194,4.0,6.0,83,0.00,,---,0.00,0.00,VWS V14.01,2013-01-08 05:56:00,
2013-01-08 01:00:00,32.3,27.7,30.36,South,191,1.0,5.0,83,0.00,,---,0.00,0.00,VWS V14.01,2013-01-08 06:00:00,
2013-01-08 01:01:00,32.3,27.7,30.36,South,191,2.0,5.0,83,0.00,,---,0.00,0.00,VWS V14.01,2013-01-08 06:01:00,
2013-01-08 01:05:00,32.3,27.7,30.35,SSW,196,2.0,6.0,83,0.00,,---,0.00,0.00,VWS V14.01,2013-01-08 06:05:00,
2013-01-08 01:06:00,32.3,27.7,30.35,SSW,195,1.0,6.0,83,0.00,,---,0.00,0.00,VWS V14.01,2013-01-08 06:06:00,
2013-01-08 01:10:00,32.3,27.7,30.36,SSW,196,0.0,5.0,83,0.00,,---,0.00,0.00,VWS V14.01,2013-01-08 06:10:00,
2013-01-08 01:11:00,32.3,27.7,30.36,SSW,196,0.0,5.0,83,0.00,,---,0.00,0.00,VWS V14.01,2013-01-08 06:11:00,
2013-01-08 01:15:00,32.2,27.3,30.36,SSW,196,0.0,3.0,82,0.00,,---,0.00,0.00,VWS V14.01,2013-01-08 06:15:00,
2013-01-08 01:16:00,32.2,27.3,30.36,SSW,196,2.0,3.0,82,0.00,,---,0.00,0.00,VWS V14.01,2013-01-08 06:16:00,
2013-01-08 01:20:00,32.1,27.2,30.36,SSW,196,0.0,2.0,82,0.00,,---,0.00,0.00,VWS V14.01,2013-01-08 06:20:00,
2013-01-08 01:21:00,32.1,27.2,30.36,SSW,196,0.0,2.0,82,0.00,,---,0.00,0.00,VWS V14.01,2013-01-08 06:21:00,
2013-01-08 01:25:00,32.1,27.5,30.36,SSW,196,0.0,0.0,83,0.00,,---,0.00,0.00,VWS V14.01,2013-01-08 06:25:00,
2013-01-08 01:26:00,32.1,27.5,30.36,SSW,196,0.0,0.0,83,0.00,,---,0.00,0.00,VWS V14.01,2013-01-08 06:26:00,
2013-01-08 01:30:00,32.2,27.6,30.36,SSW,196,1.0,3.0,83,0.00,,---,0.00,0.00,VWS V14.01,2013-01-08 06:30:00,
2013-01-08 01:31:00,32.2,27.6,30.36,SSW,196,0.0,3.0,83,0.00,,---,0.00,0.00,VWS V14.01,2013-01-08 06:31:00,
2013-01-08 01:35:00,32.1,27.2,30.36,SSW,196,0.0,2.0,82,0.00,,---,0.00,0.00,VWS V14.01,2013-01-08 06:35:00,
2013-01-08 01:36:00,32.1,27.2,30.36,SSW,196,0.0,2.0,82,0.00,,---,0.00,0.00,VWS V14.01,2013-01-08 06:36:00,
2013-01-08 01:40:00,32.1,27.5,30.36,SSW,198,1.0,4.0,83,0.00,,---,0.00,0.00,VWS V14.01,2013-01-08 06:40:00,
2013-01-08 01:41:00,32.1,27.5,30.36,SSW,198,1.0,4.0,83,0.00,,---,0.00,0.00,VWS V14.01,2013-01-08 06:41:00,
2013-01-08 01:45:00,32.1,27.5,30.35,SSW,198,1.0,3.0,83,0.00,,---,0.00,0.00,VWS V14.01,2013-01-08 06:45:00,
2013-01-08 01:46:00,32.1,27.5,30.35,SSW,198,1.0,3.0,83,0.00,,---,0.00,0.00,VWS V14.01,2013-01-08 06:46:00,
2013-01-08 01:50:00,32.5,27.9,30.35,SSW,198,3.0,3.0,83,0.00,,---,0.00,0.00,VWS V14.01,2013-01-08 06:50:00,
2013-01-08 01:51:00,32.5,27.9,30.35,SSW,198,1.0,3.0,83,0.00,,---,0.00,0.00,VWS V14.01,2013-01-08 06:51:00,
2013-01-08 01:55:00,32.6,28.0,30.35,SSW,198,2.0,3.0,83,0.00,,---,0.00,0.00,VWS V14.01,2013-01-08 06:55:00,
2013-01-08 01:56:00,32.6,28.0,30.35,SSW,198,1.0,3.0,83,0.00,,---,0.00,0.00,VWS V14.01,2013-01-08 06:56:00,
2013-01-08 02:00:00,33.0,28.4,30.35,SSW,198,0.0,2.0,83,0.00,,---,0.00,0.00,VWS V14.01,2013-01-08 07:00:00,
2013-01-08 02:01:00,33.0,28.1,30.35,SSW,198,0.0,2.0,82,0.00,,---,0.00,0.00,VWS V14.01,2013-01-08 07:01:00,
2013-01-08 02:05:00,33.2,28.6,30.35,SSW,198,0.0,2.0,83,0.00,,---,0.00,0.00,VWS V14.01,2013-01-08 07:05:00,
2013-01-08 02:06:00,33.2,28.6,30.35,SSW,198,0.0,2.0,83,0.00,,---,0.00,0.00,VWS V14.01,2013-01-08 07:06:00,
2013-01-08 02:10:00,33.2,28.6,30.35,SSW,198,0.0,3.0,83,0.00,,---,0.00,0.00,VWS V14.01,2013-01-08 07:10:00,
2013-01-08 02:11:00,33.1,28.5,30.35,SSW,198,0.0,3.0,83,0.00,,---,0.00,0.00,VWS V14.01,2013-01-08 07:11:00,
2013-01-08 02:15:00,33.2,28.6,30.35,SSW,198,0.0,2.0,83,0.00,,---,0.00,0.00,VWS V14.01,2013-01-08 07:15:00,
2013-01-08 02:16:00,33.2,28.6,30.35,SSW,198,0.0,2.0,83,0.00,,---,0.00,0.00,VWS V14.01,2013-01-08 07:16:00,
2013-01-08 02:20:00,32.9,28.6,30.35,SSW,198,0.0,3.0,84,0.00,,---,0.00,0.00,VWS V14.01,2013-01-08 07:20:00,
2013-01-08 02:21:00,32.9,28.6,30.35,SSW,198,1.0,3.0,84,0.00,,---,0.00,0.00,VWS V14.01,2013-01-08 07:21:00,
2013-01-08 02:25:00,33.0,28.7,30.35,SSW,198,0.0,4.0,84,0.00,,---,0.00,0.00,VWS V14.01,2013-01-08 07:25:00,
2013-01-08 02:26:00,33.0,29.0,30.35,SSW,198,0.0,4.0,85,0.00,,---,0.00,0.00,VWS V14.01,2013-01-08 07:26:00,
2013-01-08 02:30:00,33.0,29.3,30.35,SSW,198,0.0,1.0,86,0.00,,---,0.00,0.00,VWS V14.01,2013-01-08 07:30:00,
2013-01-08 02:31:00,33.0,29.3,30.35,SSW,198,1.0,1.0,86,0.00,,---,0.00,0.00,VWS V14.01,2013-01-08 07:31:00,
2013-01-08 02:35:00,33.2,29.5,30.35,SSW,199,0.0,3.0,86,0.00,,---,0.00,0.00,VWS V14.01,2013-01-08 07:35:00,
2013-01-08 02:36:00,33.2,29.5,30.35,SSW,199,2.0,3.0,86,0.00,,---,0.00,0.00,VWS V14.01,2013-01-08 07:36:00,
2013-01-08 02:40:00,33.5,29.8,30.35,SSW,199,2.0,4.0,86,0.00,,---,0.00,0.00,VWS V14.01,2013-01-08 07:40:00,
2013-01-08 02:41:00,33.5,29.8,30.35,SSW,199,0.0,4.0,86,0.00,,---,0.00,0.00,VWS V14.01,2013-01-08 07:41:00,
2013-01-08 02:45:00,33.6,29.6,30.35,SSW,200,2.0,5.0,85,0.00,,---,0.00,0.00,VWS V14.01,2013-01-08 07:45:00,
2013-01-08 02:46:00,33.7,29.7,30.35,SSW,200,2.0,5.0,85,0.00,,---,0.00,0.00,VWS V14.01,2013-01-08 07:46:00,
2013-01-08 02:50:00,33.7,29.7,30.34,SSW,206,0.0,4.0,85,0.00,,---,0.00,0.00,VWS V14.01,2013-01-08 07:50:00,
2013-01-08 02:51:00,33.8,29.8,30.34,SSW,207,2.0,4.0,85,0.00,,---,0.00,0.00,VWS V14.01,2013-01-08 07:51:00,
2013-01-08 02:55:00,33.8,29.8,30.34,SW,215,1.0,5.0,85,0.00,,---,0.00,0.00,VWS V14.01,2013-01-08 07:55:00,
2013-01-08 02:56:00,33.8,29.8,30.34,SSW,211,5.0,5.0,85,0.00,,---,0.00,0.00,VWS V14.01,2013-01-08 07:56:00,
2013-01-08 03:00:00,33.8,30.1,30.34,SSW,203,3.0,4.0,86,0.00,,---,0.00,0.00,VWS V14.01,2013-01-08 08:00:00,
2013-01-08 03:01:00,33.8,29.8,30.34,SSW,203,2.0,4.0,85,0.00,,---,0.00,0.00,VWS V14.01,2013-01-08 08:01:00,
2013-01-08 03:05:00,34.0,30.3,30.34,SSW,202,2.0,5.0,86,0.00,,---,0.00,0.00,VWS V14.01,2013-01-08 08:05:00,
2013-01-08 03:06:00,34.0,30.3,30.34,SSW,202,3.0,5.0,86,0.00,,---,0.00,0.00,VWS V14.01,2013-01-08 08:06:00,
2013-01-08 03:10:00,34.4,30.6,30.34,SSW,203,4.0,7.0,86,0.00,,---,0.00,0.00,VWS V14.01,2013-01-08 08:10:00,
2013-01-08 03:11:00,34.4,30.6,30.34,SSW,194,3.0,6.0,86,0.00,,---,0.00,0.00,VWS V14.01,2013-01-08 08:11:00,
2013-01-08 03:15:00,34.6,30.6,30.33,SSW,198,4.0,6.0,85,0.00,,---,0.00,0.00,VWS V14.01,2013-01-08 08:15:00,
2013-01-08 03:16:00,34.6,30.6,30.33,SSW,198,3.0,6.0,85,0.00,,---,0.00,0.00,VWS V14.01,2013-01-08 08:16:00,
2013-01-08 03:20:00,34.8,30.8,30.33,SSW,208,5.0,5.0,85,0.00,,---,0.00,0.00,VWS V14.01,2013-01-08 08:20:00,
2013-01-08 03:21:00,34.8,30.8,30.33,SSW,208,0.0,5.0,85,0.00,,---,0.00,0.00,VWS V14.01,2013-01-08 08:21:00,
2013-01-08 03:25:00,34.9,30.9,30.33,SSW,205,2.0,6.0,85,0.00,,---,0.00,0.00,VWS V14.01,2013-01-08 08:25:00,
2013-01-08 03:26:00,34.9,30.9,30.33,SSW,205,1.0,6.0,85,0.00,,---,0.00,0.00,VWS V14.01,2013-01-08 08:26:00,
2013-01-08 03:30:00,35.2,31.1,30.33,SW,227,4.0,7.0,85,0.00,,---,0.00,0.00,VWS V14.01,2013-01-08 08:30:00,
2013-01-08 03:31:00,35.2,31.1,30.33,SW,227,0.0,7.0,85,0.00,,---,0.00,0.00,VWS V14.01,2013-01-08 08:31:00,
2013-01-08 03:35:00,35.4,31.4,30.33,SSW,211,2.0,8.0,85,0.00,,---,0.00,0.00,VWS V14.01,2013-01-08 08:35:00,
2013-01-08 03:36:00,35.4,31.4,30.33,SW,221,4.0,8.0,85,0.00,,---,0.00,0.00,VWS V14.01,2013-01-08 08:36:00,
2013-01-08 03:40:00,35.6,31.2,30.33,SW,215,2.0,7.0,84,0.00,,---,0.00,0.00,VWS V14.01,2013-01-08 08:40:00,
2013-01-08 03:41:00,35.6,31.2,30.33,SW,215,3.0,7.0,84,0.00,,---,0.00,0.00,VWS V14.01,2013-01-08 08:41:00,
2013-01-08 03:45:00,35.7,31.4,30.33,SSW,203,4.0,8.0,84,0.00,,---,0.00,0.00,VWS V14.01,2013-01-08 08:45:00,
2013-01-08 03:46:00,35.7,31.4,30.33,SSW,200,4.0,8.0,84,0.00,,---,0.00,0.00,VWS V14.01,2013-01-08 08:46:00,
2013-01-08 03:50:00,35.7,31.6,30.33,SW,221,6.0,6.0,85,0.00,,---,0.00,0.00,VWS V14.01,2013-01-08 08:50:00,
2013-01-08 03:51:00,35.8,31.7,30.33,SW,224,0.0,6.0,85,0.00,,---,0.00,0.00,VWS V14.01,2013-01-08 08:51:00,
2013-01-08 03:55:00,35.8,31.7,30.33,WSW,252,4.0,7.0,85,0.00,,---,0.00,0.00,VWS V14.01,2013-01-08 08:55:00,
2013-01-08 03:56:00,35.7,31.6,30.33,SW,232,2.0,6.0,85,0.00,,---,0.00,0.00,VWS V14.01,2013-01-08 08:56:00,
2013-01-08 04:00:00,35.8,31.7,30.33,SW,223,4.0,6.0,85,0.00,,---,0.00,0.00,VWS V14.01,2013-01-08 09:00:00,
2013-01-08 04:01:00,35.8,31.7,30.33,SW,224,3.0,6.0,85,0.00,,---,0.00,0.00,VWS V14.01,2013-01-08 09:01:00,
2013-01-08 04:05:00,35.8,32.0,30.33,SW,221,2.0,7.0,86,0.00,,---,0.00,0.00,VWS V14.01,2013-01-08 09:05:00,
2013-01-08 04:06:00,35.8,32.0,30.33,SW,221,4.0,7.0,86,0.00,,---,0.00,0.00,VWS V14.01,2013-01-08 09:06:00,
2013-01-08 04:10:00,35.6,31.8,30.33,SW,217,1.0,7.0,86,0.00,,---,0.00,0.00,VWS V14.01,2013-01-08 09:10:00,
2013-01-08 04:11:00,35.7,31.9,30.33,SW,215,4.0,7.0,86,0.00,,---,0.00,0.00,VWS V14.01,2013-01-08 09:11:00,
2013-01-08 04:15:00,35.5,31.7,30.33,SSW,202,5.0,7.0,86,0.00,,---,0.00,0.00,VWS V14.01,2013-01-08 09:15:00,
2013-01-08 04:16:00,35.6,31.8,30.33,SW,232,3.0,7.0,86,0.00,,---,0.00,0.00,VWS V14.01,2013-01-08 09:16:00,
2013-01-08 04:20:00,35.5,32.0,30.33,SSW,209,2.0,8.0,87,0.00,,---,0.00,0.00,VWS V14.01,2013-01-08 09:20:00,
2013-01-08 04:21:00,35.5,31.7,30.33,SW,215,3.0,8.0,86,0.00,,---,0.00,0.00,VWS V14.01,2013-01-08 09:21:00,
2013-01-08 04:25:00,35.5,32.0,30.33,WSW,237,4.0,7.0,87,0.00,,---,0.00,0.00,VWS V14.01,2013-01-08 09:25:00,
2013-01-08 04:26:00,35.5,32.0,30.33,SSW,211,4.0,7.0,87,0.00,,---,0.00,0.00,VWS V14.01,2013-01-08 09:26:00,
2013-01-08 04:31:00,35.4,31.9,30.33,SW,227,0.0,6.0,87,0.00,,---,0.00,0.00,VWS V14.01,2013-01-08 09:31:00,
2013-01-08 04:35:00,35.3,31.8,30.33,SW,228,6.0,7.0,87,0.00,,---,0.00,0.00,VWS V14.01,2013-01-08 09:35:00,
2013-01-08 04:36:00,35.4,31.9,30.33,SW,234,3.0,7.0,87,0.00,,---,0.00,0.00,VWS V14.01,2013-01-08 09:36:00,
2013-01-08 04:40:00,35.4,31.9,30.33,SW,224,4.0,7.0,87,0.00,,---,0.00,0.00,VWS V14.01,2013-01-08 09:40:00,
2013-01-08 04:41:00,35.4,31.9,30.33,SW,224,2.0,7.0,87,0.00,,---,0.00,0.00,VWS V14.01,2013-01-08 09:41:00,
2013-01-08 04:45:00,35.4,31.9,30.33,SW,234,3.0,6.0,87,0.00,,---,0.00,0.00,VWS V14.01,2013-01-08 09:45:00,
2013-01-08 04:46:00,35.4,31.9,30.33,SW,231,5.0,6.0,87,0.00,,---,0.00,0.00,VWS V14.01,2013-01-08 09:46:00,
2013-01-08 04:50:00,35.3,31.8,30.34,SW,219,6.0,7.0,87,0.00,,---,0.00,0.00,VWS V14.01,2013-01-08 09:50:00,
2013-01-08 04:51:00,35.3,31.8,30.34,SW,228,2.0,7.0,87,0.00,,---,0.00,0.00,VWS V14.01,2013-01-08 09:51:00,
2013-01-08 04:55:00,35.2,31.7,30.34,SW,229,4.0,7.0,87,0.00,,---,0.00,0.00,VWS V14.01,2013-01-08 09:55:00,
2013-01-08 04:56:00,35.3,31.8,30.34,SW,229,4.0,7.0,87,0.00,,---,0.00,0.00,VWS V14.01,2013-01-08 09:56:00,
2013-01-08 05:00:00,35.1,31.6,30.33,SW,226,3.0,7.0,87,0.00,,---,0.00,0.00,VWS V14.01,2013-01-08 10:00:00,
2013-01-08 05:01:00,35.1,31.6,30.33,SW,230,3.0,7.0,87,0.00,,---,0.00,0.00,VWS V14.01,2013-01-08 10:01:00,
2013-01-08 05:05:00,35.2,31.4,30.34,SW,231,4.0,8.0,86,0.00,,---,0.00,0.00,VWS V14.01,2013-01-08 10:05:00,
2013-01-08 05:06:00,35.2,31.4,30.34,SSW,203,4.0,8.0,86,0.00,,---,0.00,0.00,VWS V14.01,2013-01-08 10:06:00,
2013-01-08 05:10:00,35.2,31.4,30.34,SW,222,7.0,7.0,86,0.00,,---,0.00,0.00,VWS V14.01,2013-01-08 10:10:00,
2013-01-08 05:11:00,35.2,31.4,30.34,SW,216,6.0,7.0,86,0.00,,---,0.00,0.00,VWS V14.01,2013-01-08 10:11:00,
2013-01-08 05:15:00,35.2,31.4,30.34,SW,223,2.0,9.0,86,0.00,,---,0.00,0.00,VWS V14.01,2013-01-08 10:15:00,
2013-01-08 05:16:00,35.2,31.4,30.34,SW,215,3.0,9.0,86,0.00,,---,0.00,0.00,VWS V14.01,2013-01-08 10:16:00,
2013-01-08 05:20:00,35.1,31.0,30.34,SW,219,3.0,8.0,85,0.00,,---,0.00,0.00,VWS V14.01,2013-01-08 10:20:00,
2013-01-08 05:21:00,35.2,31.1,30.34,SW,221,5.0,8.0,85,0.00,,---,0.00,0.00,VWS V14.01,2013-01-08 10:21:00,
2013-01-08 05:25:00,35.0,31.2,30.34,SW,223,3.0,7.0,86,0.00,,---,0.00,0.00,VWS V14.01,2013-01-08 10:25:00,
2013-01-08 05:30:00,34.8,31.0,30.34,SW,232,1.0,7.0,86,0.00,,---,0.00,0.00,VWS V14.01,2013-01-08 10:30:00,
2013-01-08 05:35:00,34.7,31.0,30.34,SSW,212,7.0,8.0,86,0.00,,---,0.00,0.00,VWS V14.01,2013-01-08 10:35:00,
2013-01-08 05:40:00,34.7,31.0,30.34,SW,220,3.0,7.0,86,0.00,,---,0.00,0.00,VWS V14.01,2013-01-08 10:40:00,
2013-01-08 05:45:00,34.6,30.9,30.34,SW,217,5.0,8.0,86,0.00,,---,0.00,0.00,VWS V14.01,2013-01-08 10:45:00,
2013-01-08 05:50:00,34.6,30.9,30.34,SW,215,2.0,7.0,86,0.00,,---,0.00,0.00,VWS V14.01,2013-01-08 10:50:00,
2013-01-08 05:55:00,34.5,30.8,30.34,SW,217,7.0,7.0,86,0.00,,---,0.00,0.00,VWS V14.01,2013-01-08 10:55:00,
2013-01-08 06:00:00,34.5,30.8,30.34,SW,215,3.0,8.0,86,0.00,,---,0.00,0.00,VWS V14.01,2013-01-08 11:00:00,
2013-01-08 06:05:00,34.6,30.9,30.35,SW,214,2.0,7.0,86,0.00,,---,0.00,0.00,VWS V14.01,2013-01-08 11:05:00,
2013-01-08 06:10:00,34.8,31.0,30.35,WSW,238,5.0,8.0,86,0.00,,---,0.00,0.00,VWS V14.01,2013-01-08 11:10:00,
2013-01-08 06:15:00,34.8,31.0,30.36,SSW,209,6.0,8.0,86,0.00,,---,0.00,0.00,VWS V14.01,2013-01-08 11:15:00,
2013-01-08 06:20:00,35.0,31.0,30.35,SW,227,6.0,11.0,85,0.00,,---,0.00,0.00,VWS V14.01,2013-01-08 11:20:00,
2013-01-08 06:25:00,35.0,31.0,30.35,SW,214,3.0,8.0,85,0.00,,---,0.00,0.00,VWS V14.01,2013-01-08 11:25:00,
2013-01-08 06:30:00,35.0,31.2,30.35,SW,219,5.0,9.0,86,0.00,,---,0.00,0.00,VWS V14.01,2013-01-08 11:30:00,
2013-01-08 06:35:00,34.9,31.1,30.35,WSW,241,7.0,8.0,86,0.00,,---,0.00,0.00,VWS V14.01,2013-01-08 11:35:00,
2013-01-08 06:40:00,34.8,31.0,30.35,SW,222,5.0,8.0,86,0.00,,---,0.00,0.00,VWS V14.01,2013-01-08 11:40:00,
2013-01-08 06:45:00,34.8,31.0,30.35,SSW,209,3.0,9.0,86,0.00,,---,0.00,0.00,VWS V14.01,2013-01-08 11:45:00,
2013-01-08 06:50:00,34.9,31.1,30.36,SSW,213,7.0,10.0,86,0.00,,---,0.00,0.00,VWS V14.01,2013-01-08 11:50:00,
2013-01-08 06:55:00,35.0,31.2,30.36,SSW,209,3.0,9.0,86,0.00,,---,0.00,0.00,VWS V14.01,2013-01-08 11:55:00,
2013-01-08 07:00:00,35.0,31.2,30.36,SW,215,8.0,8.0,86,0.00,,---,0.00,0.00,VWS V14.01,2013-01-08 12:00:00,
2013-01-08 07:05:00,35.0,31.0,30.36,SW,232,0.0,10.0,85,0.00,,---,0.00,0.00,VWS V14.01,2013-01-08 12:05:00,
2013-01-08 07:10:00,35.0,31.0,30.37,SSW,210,6.0,9.0,85,0.00,,---,0.00,0.00,VWS V14.01,2013-01-08 12:10:00,
2013-01-08 07:15:00,35.2,31.1,30.37,SW,227,0.0,7.0,85,0.00,,---,0.00,5.00,VWS V14.01,2013-01-08 12:15:00,
2013-01-08 07:20:00,35.2,31.1,30.37,SW,227,7.0,7.0,85,0.00,,---,0.00,9.00,VWS V14.01,2013-01-08 12:20:00,
2013-01-08 07:25:00,35.4,31.4,30.38,WSW,238,4.0,8.0,85,0.00,,---,0.00,12.00,VWS V14.01,2013-01-08 12:25:00,
2013-01-08 07:30:00,35.3,31.2,30.38,SSW,201,4.0,9.0,85,0.00,,---,0.00,16.00,VWS V14.01,2013-01-08 12:30:00,
2013-01-08 07:35:00,35.3,31.2,30.38,SW,234,4.0,7.0,85,0.00,,---,0.00,19.00,VWS V14.01,2013-01-08 12:35:00,
2013-01-08 07:40:00,35.5,31.7,30.38,SW,215,3.0,8.0,86,0.00,,---,0.00,21.00,VWS V14.01,2013-01-08 12:40:00,
2013-01-08 07:45:00,35.5,31.5,30.39,SW,217,6.0,6.0,85,0.00,,---,0.00,25.00,VWS V14.01,2013-01-08 12:45:00,
2013-01-08 07:50:00,35.6,31.8,30.39,SSW,209,4.0,7.0,86,0.00,,---,0.00,28.00,VWS V14.01,2013-01-08 12:50:00,
2013-01-08 07:55:00,35.7,31.6,30.39,SW,230,6.0,6.0,85,0.00,,---,0.00,32.00,VWS V14.01,2013-01-08 12:55:00,
2013-01-08 08:00:00,36.0,31.9,30.39,SW,217,3.0,9.0,85,0.00,,---,0.00,37.00,VWS V14.01,2013-01-08 13:00:00,
2013-01-08 08:05:00,36.2,32.1,30.39,SW,234,1.0,9.0,85,0.00,,---,0.00,47.00,VWS V14.01,2013-01-08 13:05:00,
2013-01-08 08:10:00,36.4,32.0,30.39,SSW,206,3.0,8.0,84,0.00,,---,0.00,56.00,VWS V14.01,2013-01-08 13:10:00,
2013-01-08 08:15:00,36.6,32.2,30.39,SW,219,3.0,8.0,84,0.00,,---,0.00,67.00,VWS V14.01,2013-01-08 13:15:00,
2013-01-08 08:20:00,36.9,32.2,30.40,SW,225,4.0,9.0,83,0.00,,---,0.00,79.00,VWS V14.01,2013-01-08 13:20:00,
2013-01-08 08:25:00,37.1,32.4,30.40,SSW,201,6.0,6.0,83,0.00,,---,0.00,90.00,VWS V14.01,2013-01-08 13:25:00,
2013-01-08 08:30:00,37.2,32.5,30.40,SW,225,2.0,9.0,83,0.00,,---,0.00,100.00,VWS V14.01,2013-01-08 13:30:00,
2013-01-08 08:35:00,37.5,32.8,30.40,SSW,209,4.0,8.0,83,0.00,,---,0.00,114.00,VWS V14.01,2013-01-08 13:35:00,
2013-01-08 08:40:00,37.7,33.0,30.40,SSW,195,2.0,9.0,83,0.00,,---,0.00,127.00,VWS V14.01,2013-01-08 13:40:00,
2013-01-08 08:45:00,37.9,32.9,30.40,SSW,209,2.0,7.0,82,0.00,,---,0.00,142.00,VWS V14.01,2013-01-08 13:45:00,
2013-01-08 08:50:00,38.3,33.3,30.40,South,188,4.0,8.0,82,0.00,,---,0.00,156.00,VWS V14.01,2013-01-08 13:50:00,
2013-01-08 08:55:00,38.6,33.3,30.40,SW,219,8.0,12.0,81,0.00,,---,0.00,169.00,VWS V14.01,2013-01-08 13:55:00,
2013-01-08 09:00:00,38.9,33.6,30.40,SW,214,7.0,9.0,81,0.00,,---,0.00,183.00,VWS V14.01,2013-01-08 14:00:00,
2013-01-08 09:05:00,38.9,33.3,30.40,WSW,237,4.0,10.0,80,0.00,,---,0.00,195.00,VWS V14.01,2013-01-08 14:05:00,
2013-01-08 09:10:00,39.3,33.7,30.40,WSW,240,5.0,9.0,80,0.00,,---,0.00,209.00,VWS V14.01,2013-01-08 14:10:00,
2013-01-08 09:15:00,39.7,33.7,30.41,SW,226,6.0,10.0,79,0.00,,---,0.00,221.00,VWS V14.01,2013-01-08 14:15:00,
2013-01-08 09:20:00,40.2,33.9,30.40,WSW,250,4.0,11.0,78,0.00,,---,0.00,234.00,VWS V14.01,2013-01-08 14:20:00,
2013-01-08 09:25:00,40.7,34.4,30.40,SW,234,6.0,14.0,78,0.00,,---,0.00,246.00,VWS V14.01,2013-01-08 14:25:00,
2013-01-08 09:30:00,41.2,34.2,30.40,WSW,237,4.0,10.0,76,0.00,,---,0.00,253.00,VWS V14.01,2013-01-08 14:30:00,
2013-01-08 09:35:00,41.5,34.5,30.40,SW,215,5.0,8.0,76,0.00,,---,0.00,264.00,VWS V14.01,2013-01-08 14:35:00,
2013-01-08 09:40:00,41.6,34.3,30.40,WSW,242,7.0,8.0,75,0.00,,---,0.00,276.00,VWS V14.01,2013-01-08 14:40:00,
2013-01-08 09:45:00,41.5,34.2,30.40,WSW,254,8.0,10.0,75,0.00,,---,0.00,285.00,VWS V14.01,2013-01-08 14:45:00,
2013-01-08 09:50:00,41.7,34.7,30.40,SSW,209,3.0,14.0,76,0.00,,---,0.00,295.00,VWS V14.01,2013-01-08 14:50:00,
2013-01-08 09:55:00,41.9,34.6,30.40,WSW,246,9.0,9.0,75,0.00,,---,0.00,302.00,VWS V14.01,2013-01-08 14:55:00,
2013-01-08 10:00:00,42.2,34.9,30.40,South,175,2.0,11.0,75,0.00,,---,0.00,313.00,VWS V14.01,2013-01-08 15:00:00,
2013-01-08 10:05:00,42.3,35.0,30.40,SSW,207,0.0,10.0,75,0.00,,---,0.00,323.00,VWS V14.01,2013-01-08 15:05:00,
2013-01-08 10:10:00,42.4,35.0,30.39,SW,224,7.0,11.0,75,0.00,,---,0.00,257.00,VWS V14.01,2013-01-08 15:10:00,
2013-01-08 10:15:00,42.5,35.2,30.39,SW,229,3.0,8.0,75,0.00,,---,0.00,141.00,VWS V14.01,2013-01-08 15:15:00,
2013-01-08 10:20:00,42.6,35.2,30.39,SSW,207,2.0,10.0,75,0.00,,---,0.00,341.00,VWS V14.01,2013-01-08 15:20:00,
2013-01-08 10:25:00,42.9,35.2,30.38,SW,226,2.0,11.0,74,0.00,,---,0.00,353.00,VWS V14.01,2013-01-08 15:25:00,
2013-01-08 10:30:00,43.2,35.5,30.38,SW,236,2.0,11.0,74,0.00,,---,0.00,360.00,VWS V14.01,2013-01-08 15:30:00,
2013-01-08 10:35:00,43.3,35.2,30.38,WSW,256,6.0,11.0,73,0.00,,---,0.00,367.00,VWS V14.01,2013-01-08 15:35:00,
2013-01-08 10:40:00,43.5,35.4,30.38,WSW,246,6.0,11.0,73,0.00,,---,0.00,374.00,VWS V14.01,2013-01-08 15:40:00,
2013-01-08 10:45:00,43.6,35.2,30.38,SW,227,5.0,11.0,72,0.00,,---,0.00,380.00,VWS V14.01,2013-01-08 15:45:00,
2013-01-08 10:50:00,43.6,35.2,30.38,West,273,3.0,14.0,72,0.00,,---,0.00,388.00,VWS V14.01,2013-01-08 15:50:00,
2013-01-08 10:55:00,43.6,34.8,30.37,WSW,246,5.0,13.0,71,0.00,,---,0.00,394.00,VWS V14.01,2013-01-08 15:55:00,
2013-01-08 11:00:00,44.0,35.2,30.37,WSW,241,9.0,11.0,71,0.00,,---,0.00,401.00,VWS V14.01,2013-01-08 16:00:00,
2013-01-08 11:05:00,44.1,35.3,30.37,SW,232,5.0,10.0,71,0.00,,---,0.00,404.00,VWS V14.01,2013-01-08 16:05:00,
2013-01-08 11:10:00,44.3,35.2,30.36,WSW,249,6.0,13.0,70,0.00,,---,0.00,410.00,VWS V14.01,2013-01-08 16:10:00,
2013-01-08 11:15:00,44.7,35.2,30.36,SW,223,6.0,14.0,69,0.00,,---,0.00,406.00,VWS V14.01,2013-01-08 16:15:00,
2013-01-08 11:20:00,44.7,34.8,30.35,West,261,12.0,16.0,68,0.00,,---,0.00,413.00,VWS V14.01,2013-01-08 16:20:00,
2013-01-08 11:25:00,44.6,34.7,30.35,WSW,246,17.0,17.0,68,0.00,,---,0.00,417.00,VWS V14.01,2013-01-08 16:25:00,
2013-01-08 11:30:00,44.8,34.5,30.35,West,259,3.0,15.0,67,0.00,,---,0.00,427.00,VWS V14.01,2013-01-08 16:30:00,
2013-01-08 11:35:00,45.0,34.3,30.35,WSW,244,5.0,12.0,66,0.00,,---,0.00,425.00,VWS V14.01,2013-01-08 16:35:00,
2013-01-08 11:40:00,45.0,34.0,30.34,WSW,254,7.0,16.0,65,0.00,,---,0.00,432.00,VWS V14.01,2013-01-08 16:40:00,
2013-01-08 11:45:00,45.2,33.8,30.34,WSW,244,8.0,13.0,64,0.00,,---,0.00,434.00,VWS V14.01,2013-01-08 16:45:00,
2013-01-08 11:49:00,45.3,33.5,30.34,SW,219,8.0,18.0,63,0.00,,---,0.00,434.00,VWS V14.01,2013-01-08 16:49:00,
2013-01-08 11:50:00,45.3,33.5,30.34,North,360,3.0,18.0,63,0.00,,---,0.00,438.00,VWS V14.01,2013-01-08 16:50:00,
2013-01-08 11:54:00,45.4,33.6,30.34,West,275,0.0,15.0,63,0.00,,---,0.00,438.00,VWS V14.01,2013-01-08 16:54:00,
2013-01-08 11:55:00,45.6,34.1,30.34,West,268,5.0,15.0,64,0.00,,---,0.00,436.00,VWS V14.01,2013-01-08 16:55:00,
2013-01-08 11:59:00,45.8,33.9,30.33,West,273,12.0,14.0,63,0.00,,---,0.00,436.00,VWS V14.01,2013-01-08 16:59:00,
2013-01-08 12:00:00,45.8,33.9,30.33,WSW,251,6.0,14.0,63,0.00,,---,0.00,436.00,VWS V14.01,2013-01-08 17:00:00,
2013-01-08 12:04:00,45.7,33.8,30.33,WSW,237,19.0,19.0,63,0.00,,---,0.00,436.00,VWS V14.01,2013-01-08 17:04:00,
2013-01-08 12:05:00,45.6,33.8,30.33,West,268,3.0,19.0,63,0.00,,---,0.00,438.00,VWS V14.01,2013-01-08 17:05:00,
2013-01-08 12:09:00,45.7,33.8,30.33,SW,214,2.0,16.0,63,0.00,,---,0.00,439.00,VWS V14.01,2013-01-08 17:09:00,
2013-01-08 12:10:00,45.7,33.8,30.33,West,276,6.0,18.0,63,0.00,,---,0.00,438.00,VWS V14.01,2013-01-08 17:10:00,
2013-01-08 12:14:00,45.8,33.9,30.32,WSW,254,5.0,10.0,63,0.00,,---,0.00,445.00,VWS V14.01,2013-01-08 17:14:00,
2013-01-08 12:15:00,45.9,34.0,30.32,WSW,249,6.0,10.0,63,0.00,,---,0.00,445.00,VWS V14.01,2013-01-08 17:15:00,
2013-01-08 12:19:00,45.9,34.0,30.32,WSW,241,7.0,11.0,63,0.00,,---,0.00,436.00,VWS V14.01,2013-01-08 17:19:00,
2013-01-08 12:20:00,45.9,33.6,30.32,West,265,8.0,11.0,62,0.00,,---,0.00,450.00,VWS V14.01,2013-01-08 17:20:00,
2013-01-08 12:24:00,45.9,33.6,30.31,WSW,258,4.0,15.0,62,0.00,,---,0.00,417.00,VWS V14.01,2013-01-08 17:24:00,
2013-01-08 12:25:00,46.0,33.7,30.31,SW,227,7.0,15.0,62,0.00,,---,0.00,313.00,VWS V14.01,2013-01-08 17:25:00,
2013-01-08 12:29:00,46.1,33.8,30.31,West,261,6.0,12.0,62,0.00,,---,0.00,429.00,VWS V14.01,2013-01-08 17:29:00,
2013-01-08 12:30:00,46.2,33.9,30.31,West,264,9.0,12.0,62,0.00,,---,0.00,425.00,VWS V14.01,2013-01-08 17:30:00,
2013-01-08 12:34:00,46.1,33.8,30.31,West,265,4.0,11.0,62,0.00,,---,0.00,301.00,VWS V14.01,2013-01-08 17:34:00,
2013-01-08 12:35:00,45.9,33.6,30.31,West,263,12.0,12.0,62,0.00,,---,0.00,411.00,VWS V14.01,2013-01-08 17:35:00,
2013-01-08 12:39:00,45.9,33.6,30.31,WSW,257,14.0,14.0,62,0.00,,---,0.00,431.00,VWS V14.01,2013-01-08 17:39:00,
2013-01-08 12:40:00,46.0,33.7,30.31,West,278,13.0,14.0,62,0.00,,---,0.00,427.00,VWS V14.01,2013-01-08 17:40:00,
2013-01-08 12:44:00,46.0,33.7,30.31,West,281,2.0,13.0,62,0.00,,---,0.00,355.00,VWS V14.01,2013-01-08 17:44:00,
2013-01-08 12:45:00,46.0,34.1,30.31,West,280,4.0,14.0,63,0.00,,---,0.00,427.00,VWS V14.01,2013-01-08 17:45:00,
2013-01-08 12:49:00,45.9,34.0,30.31,WSW,254,6.0,10.0,63,0.00,,---,0.00,422.00,VWS V14.01,2013-01-08 17:49:00,
2013-01-08 12:50:00,45.8,34.3,30.31,WSW,254,10.0,10.0,64,0.00,,---,0.00,420.00,VWS V14.01,2013-01-08 17:50:00,
2013-01-08 12:54:00,46.0,34.1,30.31,WNW,296,8.0,12.0,63,0.00,,---,0.00,418.00,VWS V14.01,2013-01-08 17:54:00,
2013-01-08 12:55:00,46.1,34.2,30.31,WSW,249,8.0,12.0,63,0.00,,---,0.00,417.00,VWS V14.01,2013-01-08 17:55:00,
2013-01-08 12:59:00,46.3,34.4,30.31,WNW,295,6.0,9.0,63,0.00,,---,0.00,424.00,VWS V14.01,2013-01-08 17:59:00,
2013-01-08 13:00:00,46.3,34.0,30.31,WNW,286,7.0,10.0,62,0.00,,---,0.00,418.00,VWS V14.01,2013-01-08 18:00:00,
2013-01-08 13:04:00,46.2,34.3,30.31,West,271,10.0,13.0,63,0.00,,---,0.00,394.00,VWS V14.01,2013-01-08 18:04:00,
2013-01-08 13:05:00,46.0,34.1,30.31,West,281,5.0,13.0,63,0.00,,---,0.00,329.00,VWS V14.01,2013-01-08 18:05:00,
2013-01-08 13:09:00,46.0,34.5,30.30,WNW,286,10.0,10.0,64,0.00,,---,0.00,385.00,VWS V14.01,2013-01-08 18:09:00,
2013-01-08 13:10:00,45.9,34.8,30.30,WNW,288,3.0,10.0,65,0.00,,---,0.00,325.00,VWS V14.01,2013-01-08 18:10:00,
2013-01-08 13:14:00,45.7,35.0,30.31,West,271,4.0,7.0,66,0.00,,---,0.00,294.00,VWS V14.01,2013-01-08 18:14:00,
2013-01-08 13:15:00,45.5,34.4,30.31,SW,236,6.0,11.0,65,0.00,,---,0.00,359.00,VWS V14.01,2013-01-08 18:15:00,
2013-01-08 13:19:00,45.4,34.3,30.31,WSW,237,8.0,8.0,65,0.00,,---,0.00,394.00,VWS V14.01,2013-01-08 18:19:00,
2013-01-08 13:20:00,45.4,34.3,30.31,WNW,292,0.0,9.0,65,0.00,,---,0.00,399.00,VWS V14.01,2013-01-08 18:20:00,
2013-01-08 13:24:00,45.4,34.7,30.31,West,261,7.0,8.0,66,0.00,,---,0.00,371.00,VWS V14.01,2013-01-08 18:24:00,
2013-01-08 13:25:00,45.4,34.3,30.31,WSW,242,2.0,10.0,65,0.00,,---,0.00,383.00,VWS V14.01,2013-01-08 18:25:00,
2013-01-08 13:29:00,45.5,34.4,30.31,WNW,290,0.0,11.0,65,0.00,,---,0.00,374.00,VWS V14.01,2013-01-08 18:29:00,
2013-01-08 13:30:00,45.6,34.9,30.31,NW,306,2.0,11.0,66,0.00,,---,0.00,385.00,VWS V14.01,2013-01-08 18:30:00,
2013-01-08 13:34:00,45.7,34.6,30.31,WSW,248,2.0,10.0,65,0.00,,---,0.00,380.00,VWS V14.01,2013-01-08 18:34:00,
2013-01-08 13:35:00,45.6,34.5,30.31,West,261,1.0,10.0,65,0.00,,---,0.00,376.00,VWS V14.01,2013-01-08 18:35:00,
2013-01-08 13:39:00,45.7,34.6,30.30,West,281,2.0,10.0,65,0.00,,---,0.00,369.00,VWS V14.01,2013-01-08 18:39:00,
2013-01-08 13:40:00,45.8,34.7,30.31,WNW,291,2.0,10.0,65,0.00,,---,0.00,348.00,VWS V14.01,2013-01-08 18:40:00,
2013-01-08 13:44:00,45.8,34.7,30.31,WSW,252,7.0,11.0,65,0.00,,---,0.00,350.00,VWS V14.01,2013-01-08 18:44:00,
2013-01-08 13:45:00,45.7,34.6,30.31,West,261,8.0,11.0,65,0.00,,---,0.00,346.00,VWS V14.01,2013-01-08 18:45:00,
2013-01-08 13:49:00,45.5,34.4,30.31,West,279,3.0,11.0,65,0.00,,---,0.00,334.00,VWS V14.01,2013-01-08 18:49:00,
2013-01-08 13:50:00,45.4,34.3,30.31,WSW,246,7.0,11.0,65,0.00,,---,0.00,323.00,VWS V14.01,2013-01-08 18:50:00,
2013-01-08 13:54:00,45.4,34.7,30.30,West,265,0.0,8.0,66,0.00,,---,0.00,339.00,VWS V14.01,2013-01-08 18:54:00,
2013-01-08 13:55:00,45.4,34.7,30.30,WSW,254,5.0,8.0,66,0.00,,---,0.00,341.00,VWS V14.01,2013-01-08 18:55:00,
2013-01-08 13:59:00,45.3,34.6,30.30,WNW,288,2.0,11.0,66,0.00,,---,0.00,336.00,VWS V14.01,2013-01-08 18:59:00,
2013-01-08 14:00:00,45.3,35.0,30.30,West,267,6.0,11.0,67,0.00,,---,0.00,336.00,VWS V14.01,2013-01-08 19:00:00,
2013-01-08 14:04:00,45.3,35.0,30.30,West,273,4.0,9.0,67,0.00,,---,0.00,330.00,VWS V14.01,2013-01-08 19:04:00,
2013-01-08 14:05:00,45.3,35.0,30.30,West,271,1.0,9.0,67,0.00,,---,0.00,325.00,VWS V14.01,2013-01-08 19:05:00,
2013-01-08 14:09:00,45.2,34.9,30.30,WNW,286,9.0,9.0,67,0.00,,---,0.00,322.00,VWS V14.01,2013-01-08 19:09:00,
2013-01-08 14:10:00,45.2,35.3,30.31,West,275,5.0,9.0,68,0.00,,---,0.00,316.00,VWS V14.01,2013-01-08 19:10:00,
2013-01-08 14:14:00,45.2,35.3,30.31,West,281,6.0,8.0,68,0.00,,---,0.00,311.00,VWS V14.01,2013-01-08 19:14:00,
2013-01-08 14:15:00,45.1,34.8,30.30,West,271,2.0,10.0,67,0.00,,---,0.00,308.00,VWS V14.01,2013-01-08 19:15:00,
2013-01-08 14:19:00,45.2,34.9,30.30,WNW,284,6.0,6.0,67,0.00,,---,0.00,301.00,VWS V14.01,2013-01-08 19:19:00,
2013-01-08 14:20:00,45.3,34.6,30.30,West,280,6.0,9.0,66,0.00,,---,0.00,295.00,VWS V14.01,2013-01-08 19:20:00,
2013-01-08 14:24:00,45.4,34.3,30.30,SW,232,2.0,8.0,65,0.00,,---,0.00,292.00,VWS V14.01,2013-01-08 19:24:00,
2013-01-08 14:25:00,45.7,35.0,30.30,SSW,211,3.0,8.0,66,0.00,,---,0.00,288.00,VWS V14.01,2013-01-08 19:25:00,
2013-01-08 14:29:00,45.9,35.2,30.31,SSW,209,1.0,8.0,66,0.00,,---,0.00,281.00,VWS V14.01,2013-01-08 19:29:00,
2013-01-08 14:30:00,45.8,35.1,30.31,WSW,239,7.0,8.0,66,0.00,,---,0.00,279.00,VWS V14.01,2013-01-08 19:30:00,
2013-01-08 14:34:00,45.6,34.9,30.31,SW,220,7.0,9.0,66,0.00,,---,0.00,272.00,VWS V14.01,2013-01-08 19:34:00,
2013-01-08 14:35:00,45.6,34.9,30.31,WSW,240,0.0,9.0,66,0.00,,---,0.00,265.00,VWS V14.01,2013-01-08 19:35:00,
2013-01-08 14:39:00,45.6,35.3,30.31,SSW,194,0.0,5.0,67,0.00,,---,0.00,260.00,VWS V14.01,2013-01-08 19:39:00,
2013-01-08 14:40:00,45.6,35.3,30.31,SW,220,3.0,6.0,67,0.00,,---,0.00,255.00,VWS V14.01,2013-01-08 19:40:00,
2013-01-08 14:44:00,45.5,35.2,30.31,WSW,256,1.0,5.0,67,0.00,,---,0.00,250.00,VWS V14.01,2013-01-08 19:44:00,
2013-01-08 14:45:00,45.3,35.0,30.31,WSW,242,0.0,7.0,67,0.00,,---,0.00,243.00,VWS V14.01,2013-01-08 19:45:00,
2013-01-08 14:49:00,45.5,35.2,30.31,SW,221,6.0,6.0,67,0.00,,---,0.00,237.00,VWS V14.01,2013-01-08 19:49:00,
2013-01-08 14:50:00,45.7,35.0,30.31,WSW,244,6.0,7.0,66,0.00,,---,0.00,223.00,VWS V14.01,2013-01-08 19:50:00,
2013-01-08 14:54:00,45.7,35.0,30.31,WSW,242,6.0,8.0,66,0.00,,---,0.00,225.00,VWS V14.01,2013-01-08 19:54:00,
2013-01-08 14:55:00,45.7,35.0,30.31,WSW,242,2.0,8.0,66,0.00,,---,0.00,216.00,VWS V14.01,2013-01-08 19:55:00,
2013-01-08 14:59:00,45.6,34.9,30.31,WSW,238,6.0,8.0,66,0.00,,---,0.00,211.00,VWS V14.01,2013-01-08 19:59:00,
2013-01-08 15:00:00,45.5,34.8,30.31,SW,235,2.0,8.0,66,0.00,,---,0.00,206.00,VWS V14.01,2013-01-08 20:00:00,
2013-01-08 15:04:00,45.4,34.7,30.31,SW,229,0.0,7.0,66,0.00,,---,0.00,193.00,VWS V14.01,2013-01-08 20:04:00,
2013-01-08 15:05:00,45.5,35.2,30.31,SW,234,6.0,7.0,67,0.00,,---,0.00,190.00,VWS V14.01,2013-01-08 20:05:00,
2013-01-08 15:09:00,45.5,34.8,30.31,WSW,250,7.0,8.0,66,0.00,,---,0.00,183.00,VWS V14.01,2013-01-08 20:09:00,
2013-01-08 15:10:00,45.3,34.6,30.31,WSW,239,2.0,9.0,66,0.00,,---,0.00,176.00,VWS V14.01,2013-01-08 20:10:00,
2013-01-08 15:14:00,45.3,35.0,30.30,WSW,257,3.0,7.0,67,0.00,,---,0.00,171.00,VWS V14.01,2013-01-08 20:14:00,
2013-01-08 15:15:00,45.4,34.7,30.30,WSW,246,2.0,7.0,66,0.00,,---,0.00,163.00,VWS V14.01,2013-01-08 20:15:00,
2013-01-08 15:19:00,45.4,34.7,30.30,WSW,246,1.0,9.0,66,0.00,,---,0.00,156.00,VWS V14.01,2013-01-08 20:19:00,
2013-01-08 15:20:00,45.3,34.6,30.30,SW,225,0.0,10.0,66,0.00,,---,0.00,149.00,VWS V14.01,2013-01-08 20:20:00,
2013-01-08 15:24:00,45.2,34.5,30.30,WSW,238,0.0,7.0,66,0.00,,---,0.00,146.00,VWS V14.01,2013-01-08 20:24:00,
2013-01-08 15:25:00,45.0,34.7,30.30,WSW,241,9.0,9.0,67,0.00,,---,0.00,141.00,VWS V14.01,2013-01-08 20:25:00,
2013-01-08 15:29:00,44.8,34.5,30.30,WSW,238,5.0,9.0,67,0.00,,---,0.00,134.00,VWS V14.01,2013-01-08 20:29:00,
2013-01-08 15:30:00,44.6,34.7,30.30,WSW,248,4.0,9.0,68,0.00,,---,0.00,86.00,VWS V14.01,2013-01-08 20:30:00,
2013-01-08 15:34:00,44.6,34.7,30.30,WSW,248,0.0,4.0,68,0.00,,---,0.00,116.00,VWS V14.01,2013-01-08 20:34:00,
2013-01-08 15:35:00,44.6,35.1,30.30,WSW,248,0.0,4.0,69,0.00,,---,0.00,118.00,VWS V14.01,2013-01-08 20:35:00,
2013-01-08 15:39:00,44.5,35.0,30.30,WSW,248,0.0,2.0,69,0.00,,---,0.00,107.00,VWS V14.01,2013-01-08 20:39:00,
2013-01-08 15:40:00,44.5,35.0,30.30,WSW,240,0.0,3.0,69,0.00,,---,0.00,97.00,VWS V14.01,2013-01-08 20:40:00,
2013-01-08 15:44:00,44.5,35.0,30.30,WSW,240,4.0,5.0,69,0.00,,---,0.00,86.00,VWS V14.01,2013-01-08 20:44:00,
2013-01-08 15:45:00,44.2,35.0,30.30,WSW,240,0.0,5.0,70,0.00,,---,0.00,86.00,VWS V14.01,2013-01-08 20:45:00,
2013-01-08 15:49:00,44.0,34.9,30.30,WSW,240,1.0,3.0,70,0.00,,---,0.00,77.00,VWS V14.01,2013-01-08 20:49:00,
2013-01-08 15:50:00,43.8,35.0,30.30,WSW,240,0.0,3.0,71,0.00,,---,0.00,65.00,VWS V14.01,2013-01-08 20:50:00,
2013-01-08 15:54:00,43.7,34.9,30.30,WSW,240,0.0,0.0,71,0.00,,---,0.00,53.00,VWS V14.01,2013-01-08 20:54:00,
2013-01-08 15:55:00,43.6,34.8,30.30,WSW,240,0.0,0.0,71,0.00,,---,0.00,49.00,VWS V14.01,2013-01-08 20:55:00,
2013-01-08 15:59:00,43.7,34.9,30.30,SSW,192,2.0,8.0,71,0.00,,---,0.00,44.00,VWS V14.01,2013-01-08 20:59:00,
2013-01-08 16:00:00,43.7,34.9,30.31,SW,223,4.0,8.0,71,0.00,,---,0.00,42.00,VWS V14.01,2013-01-08 21:00:00,
2013-01-08 16:04:00,43.6,34.5,30.31,SW,219,0.0,7.0,70,0.00,,---,0.00,40.00,VWS V14.01,2013-01-08 21:04:00,
2013-01-08 16:05:00,43.4,34.3,30.30,SW,214,2.0,7.0,70,0.00,,---,0.00,40.00,VWS V14.01,2013-01-08 21:05:00,
2013-01-08 16:09:00,43.3,34.2,30.30,SSW,203,2.0,7.0,70,0.00,,---,0.00,40.00,VWS V14.01,2013-01-08 21:09:00,
2013-01-08 16:10:00,43.1,34.0,30.30,SSW,213,5.0,7.0,70,0.00,,---,0.00,35.00,VWS V14.01,2013-01-08 21:10:00,
2013-01-08 16:14:00,42.9,34.2,30.30,SSW,211,6.0,7.0,71,0.00,,---,0.00,33.00,VWS V14.01,2013-01-08 21:14:00,
2013-01-08 16:15:00,42.6,33.9,30.31,SW,219,0.0,8.0,71,0.00,,---,0.00,33.00,VWS V14.01,2013-01-08 21:15:00,
2013-01-08 16:19:00,42.4,34.0,30.31,SSW,206,1.0,6.0,72,0.00,,---,0.00,28.00,VWS V14.01,2013-01-08 21:19:00,
2013-01-08 16:20:00,42.1,33.7,30.31,SSW,211,3.0,6.0,72,0.00,,---,0.00,25.00,VWS V14.01,2013-01-08 21:20:00,
2013-01-08 16:24:00,41.9,33.9,30.31,SW,219,4.0,6.0,73,0.00,,---,0.00,21.00,VWS V14.01,2013-01-08 21:24:00,
2013-01-08 16:25:00,41.8,33.8,30.31,South,181,3.0,8.0,73,0.00,,---,0.00,18.00,VWS V14.01,2013-01-08 21:25:00,
2013-01-08 16:29:00,41.8,34.1,30.30,South,187,2.0,7.0,74,0.00,,---,0.00,14.00,VWS V14.01,2013-01-08 21:29:00,
2013-01-08 16:30:00,41.8,34.1,30.30,SSW,209,3.0,9.0,74,0.00,,---,0.00,11.00,VWS V14.01,2013-01-08 21:30:00,
2013-01-08 16:34:00,41.9,34.2,30.30,SW,214,4.0,7.0,74,0.00,,---,0.00,7.00,VWS V14.01,2013-01-08 21:34:00,
2013-01-08 16:35:00,41.8,34.1,30.31,SSW,207,0.0,7.0,74,0.00,,---,0.00,5.00,VWS V14.01,2013-01-08 21:35:00,
2013-01-08 16:39:00,41.6,33.9,30.31,SSW,194,5.0,7.0,74,0.00,,---,0.00,5.00,VWS V14.01,2013-01-08 21:39:00,
2013-01-08 16:40:00,41.3,34.0,30.31,SSW,192,3.0,7.0,75,0.00,,---,0.00,0.00,VWS V14.01,2013-01-08 21:40:00,
2013-01-08 16:44:00,41.1,33.8,30.31,SSW,200,5.0,7.0,75,0.00,,---,0.00,0.00,VWS V14.01,2013-01-08 21:44:00,
2013-01-08 16:45:00,40.9,33.9,30.31,SSW,196,3.0,9.0,76,0.00,,---,0.00,0.00,VWS V14.01,2013-01-08 21:45:00,
2013-01-08 16:49:00,40.9,33.9,30.31,SSW,198,1.0,11.0,76,0.00,,---,0.00,0.00,VWS V14.01,2013-01-08 21:49:00,
2013-01-08 16:50:00,40.8,33.8,30.31,South,173,8.0,11.0,76,0.00,,---,0.00,0.00,VWS V14.01,2013-01-08 21:50:00,
2013-01-08 16:54:00,40.8,33.8,30.30,SSW,201,4.0,9.0,76,0.00,,---,0.00,0.00,VWS V14.01,2013-01-08 21:54:00,
2013-01-08 16:55:00,40.8,33.8,30.31,SSW,196,5.0,9.0,76,0.00,,---,0.00,0.00,VWS V14.01,2013-01-08 21:55:00,
2013-01-08 16:59:00,40.7,34.1,30.31,SSW,200,3.0,8.0,77,0.00,,---,0.00,0.00,VWS V14.01,2013-01-08 21:59:00,
2013-01-08 17:00:00,40.7,34.1,30.31,SSW,207,4.0,9.0,77,0.00,,---,0.00,0.00,VWS V14.01,2013-01-08 22:00:00,
2013-01-08 17:04:00,40.6,34.0,30.31,WSW,242,5.0,12.0,77,0.00,,---,0.00,0.00,VWS V14.01,2013-01-08 22:04:00,
2013-01-08 17:05:00,40.5,33.9,30.31,SSW,192,3.0,12.0,77,0.00,,---,0.00,0.00,VWS V14.01,2013-01-08 22:05:00,
2013-01-08 17:09:00,40.5,34.2,30.31,SSW,209,8.0,8.0,78,0.00,,---,0.00,0.00,VWS V14.01,2013-01-08 22:09:00,
2013-01-08 17:10:00,40.4,34.1,30.31,South,180,3.0,8.0,78,0.00,,---,0.00,0.00,VWS V14.01,2013-01-08 22:10:00,
2013-01-08 17:14:00,40.4,34.4,30.31,WSW,244,7.0,8.0,79,0.00,,---,0.00,0.00,VWS V14.01,2013-01-08 22:14:00,
2013-01-08 17:15:00,40.5,34.5,30.31,South,190,6.0,11.0,79,0.00,,---,0.00,0.00,VWS V14.01,2013-01-08 22:15:00,
2013-01-08 17:19:00,40.5,34.5,30.31,SSW,206,2.0,7.0,79,0.00,,---,0.00,0.00,VWS V14.01,2013-01-08 22:19:00,
2013-01-08 17:20:00,40.5,34.5,30.31,SSW,213,5.0,10.0,79,0.00,,---,0.00,0.00,VWS V14.01,2013-01-08 22:20:00,
2013-01-08 17:24:00,40.6,34.9,30.32,SSW,196,3.0,11.0,80,0.00,,---,0.00,0.00,VWS V14.01,2013-01-08 22:24:00,
2013-01-08 17:25:00,40.5,34.8,30.32,SSW,204,2.0,11.0,80,0.00,,---,0.00,0.00,VWS V14.01,2013-01-08 22:25:00,
2013-01-08 17:29:00,40.4,34.7,30.32,SSW,207,7.0,9.0,80,0.00,,---,0.00,0.00,VWS V14.01,2013-01-08 22:29:00,
2013-01-08 17:30:00,40.3,34.6,30.32,SSW,211,8.0,9.0,80,0.00,,---,0.00,0.00,VWS V14.01,2013-01-08 22:30:00,
2013-01-08 17:34:00,40.3,34.9,30.32,SSW,211,7.0,9.0,81,0.00,,---,0.00,0.00,VWS V14.01,2013-01-08 22:34:00,
2013-01-08 17:35:00,40.3,34.9,30.32,SW,232,8.0,11.0,81,0.00,,---,0.00,0.00,VWS V14.01,2013-01-08 22:35:00,
2013-01-08 17:39:00,40.3,34.9,30.32,South,190,7.0,9.0,81,0.00,,---,0.00,0.00,VWS V14.01,2013-01-08 22:39:00,
2013-01-08 17:40:00,40.2,35.2,30.32,SSW,211,5.0,9.0,82,0.00,,---,0.00,0.00,VWS V14.01,2013-01-08 22:40:00,
2013-01-08 17:45:00,40.3,35.2,30.32,SSW,202,5.0,9.0,82,0.00,,---,0.00,0.00,VWS V14.01,2013-01-08 22:45:00,
2013-01-08 17:50:00,40.3,35.6,30.32,SW,225,4.0,9.0,83,0.00,,---,0.00,0.00,VWS V14.01,2013-01-08 22:50:00,
2013-01-08 17:55:00,40.1,35.4,30.32,SW,225,3.0,8.0,83,0.00,,---,0.00,0.00,VWS V14.01,2013-01-08 22:55:00,
2013-01-08 18:00:00,39.7,35.3,30.32,SW,225,4.0,7.0,84,0.00,,---,0.00,0.00,VWS V14.01,2013-01-08 23:00:00,
2013-01-08 18:05:00,39.5,35.4,30.32,SW,225,3.0,7.0,85,0.00,,---,0.00,0.00,VWS V14.01,2013-01-08 23:05:00,
2013-01-08 18:10:00,39.6,35.5,30.33,SW,225,2.0,6.0,85,0.00,,---,0.00,0.00,VWS V14.01,2013-01-08 23:10:00,
2013-01-08 18:15:00,39.7,35.6,30.33,SW,225,2.0,6.0,85,0.00,,---,0.00,0.00,VWS V14.01,2013-01-08 23:15:00,
2013-01-08 18:20:00,39.7,35.6,30.33,SW,225,3.0,7.0,85,0.00,,---,0.00,0.00,VWS V14.01,2013-01-08 23:20:00,
2013-01-08 18:25:00,39.7,35.6,30.33,SSW,202,3.0,7.0,85,0.00,,---,0.00,0.00,VWS V14.01,2013-01-08 23:25:00,
2013-01-08 18:30:00,39.5,35.4,30.33,SSW,202,4.0,8.0,85,0.00,,---,0.00,0.00,VWS V14.01,2013-01-08 23:30:00,
2013-01-08 18:35:00,39.3,35.2,30.32,SSW,202,5.0,9.0,85,0.00,,---,0.00,0.00,VWS V14.01,2013-01-08 23:35:00,
2013-01-08 18:40:00,39.1,35.3,30.32,SSW,202,4.0,8.0,86,0.00,,---,0.00,0.00,VWS V14.01,2013-01-08 23:40:00,
2013-01-08 18:45:00,39.4,35.6,30.32,SSW,202,5.0,10.0,86,0.00,,---,0.00,0.00,VWS V14.01,2013-01-08 23:45:00,
2013-01-08 18:50:00,39.6,35.8,30.33,SW,225,3.0,7.0,86,0.00,,---,0.00,0.00,VWS V14.01,2013-01-08 23:50:00,
2013-01-08 18:55:00,39.6,35.8,30.33,SW,225,3.0,6.0,86,0.00,,---,0.00,0.00,VWS V14.01,2013-01-08 23:55:00,
2013-01-08 19:00:00,39.6,35.8,30.33,SW,225,3.0,8.0,86,0.00,,---,0.00,0.00,VWS V14.01,2013-01-09 00:00:00,
2013-01-08 19:05:00,39.4,35.6,30.34,SW,225,3.0,7.0,86,0.00,,---,0.00,0.00,VWS V14.01,2013-01-09 00:05:00,
2013-01-08 19:10:00,39.2,35.4,30.34,SW,225,3.0,8.0,86,0.00,,---,0.00,0.00,VWS V14.01,2013-01-09 00:10:00,
2013-01-08 19:15:00,39.2,35.4,30.34,SW,225,3.0,8.0,86,0.00,,---,0.00,0.00,VWS V14.01,2013-01-09 00:15:00,
2013-01-08 19:20:00,39.3,35.8,30.33,SSW,202,4.0,9.0,87,0.00,,---,0.00,0.00,VWS V14.01,2013-01-09 00:20:00,
2013-01-08 19:25:00,39.5,36.0,30.33,SW,225,5.0,10.0,87,0.00,,---,0.00,0.00,VWS V14.01,2013-01-09 00:25:00,
2013-01-08 19:30:00,39.5,35.7,30.33,SW,225,4.0,9.0,86,0.00,,---,0.00,0.00,VWS V14.01,2013-01-09 00:30:00,
2013-01-08 19:35:00,39.5,35.7,30.33,SW,225,4.0,9.0,86,0.00,,---,0.00,0.00,VWS V14.01,2013-01-09 00:35:00,
2013-01-08 19:40:00,39.4,35.9,30.33,SW,225,3.0,8.0,87,0.00,,---,0.00,0.00,VWS V14.01,2013-01-09 00:40:00,
2013-01-08 19:45:00,39.3,35.8,30.33,SW,225,2.0,7.0,87,0.00,,---,0.00,0.00,VWS V14.01,2013-01-09 00:45:00,
2013-01-08 19:50:00,39.1,35.6,30.33,SW,225,4.0,8.0,87,0.00,,---,0.00,0.00,VWS V14.01,2013-01-09 00:50:00,
2013-01-08 19:55:00,38.9,35.4,30.33,WSW,248,3.0,6.0,87,0.00,,---,0.00,0.00,VWS V14.01,2013-01-09 00:55:00,
2013-01-08 20:00:00,38.8,35.6,30.34,SW,225,3.0,8.0,88,0.00,,---,0.00,0.00,VWS V14.01,2013-01-09 01:00:00,
2013-01-08 20:05:00,38.8,35.6,30.34,SW,225,3.0,8.0,88,0.00,,---,0.00,0.00,VWS V14.01,2013-01-09 01:05:00,
2013-01-08 20:10:00,38.8,35.6,30.34,WSW,248,2.0,7.0,88,0.00,,---,0.00,0.00,VWS V14.01,2013-01-09 01:10:00,
2013-01-08 20:15:00,38.9,35.9,30.34,WSW,248,3.0,6.0,89,0.00,,---,0.00,0.00,VWS V14.01,2013-01-09 01:15:00,
2013-01-08 20:20:00,38.8,35.8,30.35,SW,225,2.0,5.0,89,0.00,,---,0.00,0.00,VWS V14.01,2013-01-09 01:20:00,
2013-01-08 20:25:00,38.5,35.5,30.34,SW,225,2.0,6.0,89,0.00,,---,0.00,0.00,VWS V14.01,2013-01-09 01:25:00,
2013-01-08 20:30:00,38.5,35.5,30.34,SW,225,2.0,5.0,89,0.00,,---,0.00,0.00,VWS V14.01,2013-01-09 01:30:00,
2013-01-08 20:35:00,38.3,35.6,30.34,SW,225,2.0,7.0,90,0.00,,---,0.00,0.00,VWS V14.01,2013-01-09 01:35:00,
2013-01-08 20:40:00,38.2,35.5,30.34,SW,225,2.0,6.0,90,0.00,,---,0.00,0.00,VWS V14.01,2013-01-09 01:40:00,
2013-01-08 20:45:00,38.2,35.5,30.34,SW,225,2.0,5.0,90,0.00,,---,0.00,0.00,VWS V14.01,2013-01-09 01:45:00,
2013-01-08 20:50:00,38.2,35.5,30.34,SW,225,2.0,6.0,90,0.00,,---,0.00,0.00,VWS V14.01,2013-01-09 01:50:00,
2013-01-08 20:55:00,38.3,35.9,30.34,WSW,248,3.0,6.0,91,0.00,,---,0.00,0.00,VWS V14.01,2013-01-09 01:55:00,
2013-01-08 21:00:00,38.1,35.7,30.35,SW,225,2.0,5.0,91,0.00,,---,0.00,0.00,VWS V14.01,2013-01-09 02:00:00,
2013-01-08 21:05:00,38.0,35.6,30.34,SW,225,2.0,5.0,91,0.00,,---,0.00,0.00,VWS V14.01,2013-01-09 02:05:00,
2013-01-08 21:10:00,38.0,35.6,30.35,SW,225,2.0,6.0,91,0.00,,---,0.00,0.00,VWS V14.01,2013-01-09 02:10:00,
2013-01-08 21:15:00,38.0,35.6,30.35,SW,225,3.0,7.0,91,0.00,,---,0.00,0.00,VWS V14.01,2013-01-09 02:15:00,
2013-01-08 21:27:00,38.0,35.6,30.35,SW,225,3.0,7.0,91,0.00,,---,0.00,0.00,VWS V14.01,2013-01-09 02:27:00,
2013-01-08 21:30:00,38.1,35.7,30.35,SW,223,2.0,5.0,91,0.00,,---,0.00,0.00,VWS V14.01,2013-01-09 02:30:00,
2013-01-08 21:32:00,38.1,35.7,30.34,SW,223,0.0,3.0,91,0.00,,---,0.00,0.00,VWS V14.01,2013-01-09 02:32:00,
2013-01-08 21:35:00,38.1,36.0,30.35,SW,233,6.0,6.0,92,0.00,,---,0.00,0.00,VWS V14.01,2013-01-09 02:35:00,
2013-01-08 21:37:00,38.2,36.1,30.35,SW,228,3.0,6.0,92,0.00,,---,0.00,0.00,VWS V14.01,2013-01-09 02:37:00,
2013-01-08 21:40:00,38.3,36.2,30.34,WSW,241,1.0,8.0,92,0.00,,---,0.00,0.00,VWS V14.01,2013-01-09 02:40:00,
2013-01-08 21:42:00,38.3,36.2,30.34,SW,232,6.0,6.0,92,0.00,,---,0.00,0.00,VWS V14.01,2013-01-09 02:42:00,
2013-01-08 21:45:00,38.2,36.1,30.35,SSW,212,1.0,7.0,92,0.00,,---,0.00,0.00,VWS V14.01,2013-01-09 02:45:00,
2013-01-08 21:47:00,38.2,35.8,30.35,SSW,213,0.0,3.0,91,0.00,,---,0.00,0.00,VWS V14.01,2013-01-09 02:47:00,
2013-01-08 21:50:00,38.2,36.1,30.34,SW,233,6.0,7.0,92,0.00,,---,0.00,0.00,VWS V14.01,2013-01-09 02:50:00,
2013-01-08 21:52:00,38.3,36.2,30.34,SW,234,2.0,6.0,92,0.00,,---,0.00,0.00,VWS V14.01,2013-01-09 02:52:00,
2013-01-08 21:55:00,38.3,35.9,30.34,SW,235,0.0,6.0,91,0.00,,---,0.00,0.00,VWS V14.01,2013-01-09 02:55:00,
2013-01-08 21:57:00,38.3,35.9,30.34,SW,235,2.0,4.0,91,0.00,,---,0.00,0.00,VWS V14.01,2013-01-09 02:57:00,
2013-01-08 22:00:00,38.3,35.9,30.34,SW,236,0.0,4.0,91,0.00,,---,0.00,0.00,VWS V14.01,2013-01-09 03:00:00,
2013-01-08 22:02:00,38.3,35.9,30.34,SW,236,0.0,0.0,91,0.00,,---,0.00,0.00,VWS V14.01,2013-01-09 03:02:00,
2013-01-08 22:05:00,38.3,35.9,30.34,SW,236,0.0,3.0,91,0.00,,---,0.00,0.00,VWS V14.01,2013-01-09 03:05:00,
2013-01-08 22:07:00,38.3,35.9,30.34,SW,236,0.0,0.0,91,0.00,,---,0.00,0.00,VWS V14.01,2013-01-09 03:07:00,
2013-01-08 22:10:00,38.4,36.0,30.34,SW,236,0.0,0.0,91,0.00,,---,0.00,0.00,VWS V14.01,2013-01-09 03:10:00,
2013-01-08 22:12:00,38.3,35.9,30.34,SW,236,0.0,0.0,91,0.00,,---,0.00,0.00,VWS V14.01,2013-01-09 03:12:00,
2013-01-08 22:15:00,38.3,35.9,30.34,SW,236,0.0,0.0,91,0.00,,---,0.00,0.00,VWS V14.01,2013-01-09 03:15:00,
2013-01-08 22:17:00,38.3,35.9,30.34,SW,236,0.0,0.0,91,0.00,,---,0.00,0.00,VWS V14.01,2013-01-09 03:17:00,
2013-01-08 22:20:00,38.0,35.3,30.34,SW,236,0.0,0.0,90,0.00,,---,0.00,0.00,VWS V14.01,2013-01-09 03:20:00,
2013-01-08 22:22:00,37.8,35.1,30.35,SW,236,0.0,0.0,90,0.00,,---,0.00,0.00,VWS V14.01,2013-01-09 03:22:00,
2013-01-08 22:25:00,37.7,35.3,30.34,SW,236,0.0,0.0,91,0.00,,---,0.00,0.00,VWS V14.01,2013-01-09 03:25:00,
2013-01-08 22:27:00,37.7,35.3,30.35,SW,236,0.0,0.0,91,0.00,,---,0.00,0.00,VWS V14.01,2013-01-09 03:27:00,
2013-01-08 22:30:00,37.7,35.3,30.35,SW,236,0.0,0.0,91,0.00,,---,0.00,0.00,VWS V14.01,2013-01-09 03:30:00,
2013-01-08 22:32:00,37.7,35.3,30.35,SW,236,0.0,0.0,91,0.00,,---,0.00,0.00,VWS V14.01,2013-01-09 03:32:00,
2013-01-08 22:35:00,37.8,35.4,30.34,SW,236,0.0,0.0,91,0.00,,---,0.00,0.00,VWS V14.01,2013-01-09 03:35:00,
2013-01-08 22:37:00,37.7,35.3,30.35,SW,236,0.0,0.0,91,0.00,,---,0.00,0.00,VWS V14.01,2013-01-09 03:37:00,
2013-01-08 22:40:00,37.8,35.4,30.35,SW,236,0.0,0.0,91,0.00,,---,0.00,0.00,VWS V14.01,2013-01-09 03:40:00,
2013-01-08 22:42:00,37.8,35.1,30.35,SW,236,0.0,0.0,90,0.00,,---,0.00,0.00,VWS V14.01,2013-01-09 03:42:00,
2013-01-08 22:45:00,37.3,34.6,30.35,SW,236,0.0,0.0,90,0.00,,---,0.00,0.00,VWS V14.01,2013-01-09 03:45:00,
2013-01-08 22:47:00,37.3,34.6,30.35,SW,236,0.0,0.0,90,0.00,,---,0.00,0.00,VWS V14.01,2013-01-09 03:47:00,
2013-01-08 22:50:00,37.5,34.8,30.35,SW,236,0.0,0.0,90,0.00,,---,0.00,0.00,VWS V14.01,2013-01-09 03:50:00,
2013-01-08 22:52:00,37.5,34.8,30.35,SW,236,0.0,0.0,90,0.00,,---,0.00,0.00,VWS V14.01,2013-01-09 03:52:00,
2013-01-08 22:55:00,37.8,34.8,30.35,SW,236,0.0,3.0,89,0.00,,---,0.00,0.00,VWS V14.01,2013-01-09 03:55:00,
2013-01-08 22:57:00,37.9,35.0,30.35,WSW,248,3.0,5.0,89,0.00,,---,0.00,0.00,VWS V14.01,2013-01-09 03:57:00,
2013-01-08 23:00:00,38.4,35.2,30.35,WSW,253,3.0,5.0,88,0.00,,---,0.00,0.00,VWS V14.01,2013-01-09 04:00:00,
2013-01-08 23:02:00,38.5,35.3,30.35,WSW,253,0.0,3.0,88,0.00,,---,0.00,0.00,VWS V14.01,2013-01-09 04:02:00,
2013-01-08 23:05:00,38.8,35.3,30.35,WSW,253,1.0,4.0,87,0.00,,---,0.00,0.00,VWS V14.01,2013-01-09 04:05:00,
2013-01-08 23:07:00,38.9,35.4,30.35,WSW,253,0.0,1.0,87,0.00,,---,0.00,0.00,VWS V14.01,2013-01-09 04:07:00,
2013-01-08 23:10:00,39.0,35.2,30.35,WSW,252,0.0,4.0,86,0.00,,---,0.00,0.00,VWS V14.01,2013-01-09 04:10:00,
2013-01-08 23:12:00,39.0,35.2,30.35,WSW,252,0.0,0.0,86,0.00,,---,0.00,0.00,VWS V14.01,2013-01-09 04:12:00,
2013-01-08 23:15:00,38.8,34.7,30.35,WSW,253,0.0,4.0,85,0.00,,---,0.00,0.00,VWS V14.01,2013-01-09 04:15:00,
2013-01-08 23:17:00,38.7,34.6,30.35,WSW,253,0.0,0.0,85,0.00,,---,0.00,0.00,VWS V14.01,2013-01-09 04:17:00,
2013-01-08 23:20:00,37.7,33.6,30.35,WSW,252,0.0,3.0,85,0.00,,---,0.00,0.00,VWS V14.01,2013-01-09 04:20:00,
2013-01-08 23:22:00,37.6,33.8,30.35,WSW,252,0.0,0.0,86,0.00,,---,0.00,0.00,VWS V14.01,2013-01-09 04:22:00,
2013-01-08 23:25:00,37.3,33.8,30.35,WSW,252,0.0,3.0,87,0.00,,---,0.00,0.00,VWS V14.01,2013-01-09 04:25:00,
2013-01-08 23:27:00,37.3,34.1,30.35,WSW,252,0.0,0.0,88,0.00,,---,0.00,0.00,VWS V14.01,2013-01-09 04:27:00,
2013-01-08 23:30:00,37.3,34.1,30.35,WSW,252,3.0,3.0,88,0.00,,---,0.00,0.00,VWS V14.01,2013-01-09 04:30:00,
2013-01-08 23:32:00,37.3,34.1,30.35,WSW,252,2.0,3.0,88,0.00,,---,0.00,0.00,VWS V14.01,2013-01-09 04:32:00,
2013-01-08 23:35:00,37.3,34.1,30.35,WSW,252,1.0,3.0,88,0.00,,---,0.00,0.00,VWS V14.01,2013-01-09 04:35:00,
2013-01-08 23:37:00,37.3,34.1,30.35,WSW,252,1.0,3.0,88,0.00,,---,0.00,0.00,VWS V14.01,2013-01-09 04:37:00,
2013-01-08 23:40:00,37.0,33.8,30.35,WSW,252,0.0,3.0,88,0.00,,---,0.00,0.00,VWS V14.01,2013-01-09 04:40:00,
2013-01-08 23:42:00,37.0,33.8,30.35,WSW,252,2.0,2.0,88,0.00,,---,0.00,0.00,VWS V14.01,2013-01-09 04:42:00,
2013-01-08 23:45:00,37.1,33.9,30.35,WSW,252,3.0,4.0,88,0.00,,---,0.00,0.00,VWS V14.01,2013-01-09 04:45:00,
2013-01-08 23:47:00,37.0,33.8,30.35,WSW,252,3.0,4.0,88,0.00,,---,0.00,0.00,VWS V14.01,2013-01-09 04:47:00,
2013-01-08 23:50:00,37.0,33.8,30.35,SW,228,2.0,5.0,88,0.00,,---,0.00,0.00,VWS V14.01,2013-01-09 04:50:00,
2013-01-08 23:52:00,37.0,33.8,30.34,SW,228,4.0,4.0,88,0.00,,---,0.00,0.00,VWS V14.01,2013-01-09 04:52:00,
2013-01-08 23:55:00,37.1,33.9,30.34,SW,228,2.0,5.0,88,0.00,,---,0.00,0.00,VWS V14.01,2013-01-09 04:55:00,
2013-01-08 23:57:00,37.0,33.8,30.35,SW,228,0.0,3.0,88,0.00,,---,0.00,0.00,VWS V14.01,2013-01-09 04:57:00,